User: anonymous   Login
Location: Caltech
(34.1382°N, 118.1253°W)
Time: 19:25:32
(UTC-08:00)
Language:

Cosmos 2251 Rocket - Orbit

View from above orbital plane
View from above orbital plane
View from above satellite
View from above satellite

Ground track
Ground track

The orbit data is extracted from the following two-line orbital elements,

1 22676U 93036B   16039.88833087  .00000106  00000-0  47476-4 0  9997
2 22676  74.0436   5.8362 0018448 157.6867 202.5091 14.33850683184494
Epoch (UTC): 08 February 2016 21:19:11
Eccentricity: 0.0018448
inclination: 74.0436°
perigee height: 765 km
apogee height: 792 km
right ascension of ascending node: 5.8362°
argument of perigee: 157.6867°
revolutions per day: 14.33850683
mean anomaly at epoch: 202.5091°
orbit number at epoch: 18449

The dashed part of the orbit path shows where the satellite is in the earth's shadow,  

DLR